When you browse on this site, cookies collect data to enhance your experience and personalize the content and advertising you see.
Visit our Privacy Policy to learn more. By continuing to use the site, you agree to this use of cookies and data.
  • In Hungary
  • List of Countries
  • For 7 days
  • Water Temperature
  • Satellite Maps
  • Weather Map
  • News
  • Weather Widgets
  • user-avatar
    Login

    Hourly Weather Jelenczewo

    Today, 22 January, Tuesday

    Time Temperature Precipitation Wind Pressure Humidity
    00:00 -5°C° 0 mm 2 mps 757 mmHg 65%
    01:00 -5°C° 0 mm 2 mps 756 mmHg 65%
    02:00 -5°C° 0 mm 2 mps 756 mmHg 65%
    03:00 -5°C° 0 mm 2 mps 756 mmHg 65%
    04:00 -5°C° 0 mm 2 mps 755 mmHg 66%
    05:00 -5°C° 0 mm 2 mps 755 mmHg 66%
    06:00 -5°C° 0 mm 2 mps 755 mmHg 66%
    07:00 -6°C° 0 mm 2 mps 754 mmHg 66%
    08:00 -5°C° 0 mm 2 mps 754 mmHg 64%
    09:00 -5°C° 0 mm 2 mps 754 mmHg 62%
    10:00 -4°C° 0 mm 2 mps 754 mmHg 60%
    11:00 -3°C° 0 mm 2 mps 754 mmHg 57%
    12:00 -3°C° 0 mm 2 mps 753 mmHg 54%
    13:00 0°C° 0 mm 1 mps 753 mmHg 51%
    14:00 -3°C° 0 mm 2 mps 752 mmHg 55%
    15:00 -3°C° 0 mm 2 mps 752 mmHg 59%
    16:00 -4°C° 0 mm 2 mps 751 mmHg 63%
    17:00 -4°C° 0 mm 2 mps 751 mmHg 66%
    18:00 -4°C° 0 mm 2 mps 751 mmHg 70%
    19:00 -6°C° 0 mm 3 mps 751 mmHg 74%
    20:00 -6°C° 0 mm 3 mps 750 mmHg 76%
    21:00 -6°C° 0 mm 3 mps 750 mmHg 77%
    22:00 -6°C° 0 mm 3 mps 750 mmHg 79%
    23:00 -6°C° 0 mm 3 mps 750 mmHg 80%

    Tomorrow, 23 January, Wednesday

    Time Temperature Precipitation Wind Pressure Humidity
    00:00 -6°C° 0 mm 3 mps 749 mmHg 81%
    01:00 -6°C° 0 mm 3 mps 749 mmHg 83%
    02:00 -7°C° 0 mm 3 mps 749 mmHg 83%
    03:00 -7°C° 0 mm 3 mps 748 mmHg 83%
    04:00 -7°C° 0 mm 3 mps 748 mmHg 83%
    05:00 -7°C° 0 mm 3 mps 748 mmHg 83%
    06:00 -7°C° 0 mm 3 mps 748 mmHg 84%
    07:00 -8°C° 0 mm 3 mps 748 mmHg 84%
    08:00 -8°C° 0 mm 4 mps 748 mmHg 82%
    09:00 -8°C° 0 mm 4 mps 748 mmHg 80%
    10:00 -7°C° 0 mm 4 mps 748 mmHg 78%
    11:00 -7°C° 0 mm 4 mps 748 mmHg 74%
    12:00 -5°C° 0 mm 4 mps 748 mmHg 70%
    13:00 -5°C° 0 mm 4 mps 747 mmHg 66%
    14:00 -5°C° 0 mm 4 mps 748 mmHg 67%
    15:00 -5°C° 0 mm 4 mps 748 mmHg 68%
    16:00 -6°C° 0 mm 3 mps 748 mmHg 69%
    17:00 -6°C° 0 mm 3 mps 748 mmHg 71%
    18:00 -6°C° 0 mm 3 mps 748 mmHg 73%
    19:00 -7°C° 0 mm 3 mps 749 mmHg 75%
    20:00 -7°C° 0 mm 3 mps 749 mmHg 76%
    21:00 -7°C° 0 mm 3 mps 749 mmHg 77%
    22:00 -7°C° 0 mm 3 mps 750 mmHg 78%
    23:00 -8°C° 0 mm 3 mps 750 mmHg 78%

    Day after tomorrow, 24 January, Thursday

    Time Temperature Precipitation Wind Pressure Humidity
    00:00 -8°C° 0 mm 3 mps 750 mmHg 79%
    01:00 -8°C° 0 mm 3 mps 751 mmHg 80%
    02:00 -8°C° 0 mm 3 mps 751 mmHg 80%
    03:00 -8°C° 0 mm 3 mps 751 mmHg 81%
    04:00 -9°C° 0 mm 3 mps 751 mmHg 82%
    05:00 -8°C° 0 mm 2 mps 751 mmHg 82%
    06:00 -8°C° 0 mm 2 mps 752 mmHg 82%
    07:00 -8°C° 0 mm 2 mps 752 mmHg 83%
    08:00 -8°C° 0 mm 3 mps 752 mmHg 79%
    09:00 -8°C° 0 mm 3 mps 753 mmHg 75%
    10:00 -7°C° 0 mm 3 mps 753 mmHg 72%
    11:00 -6°C° 0 mm 3 mps 753 mmHg 69%
    12:00 -6°C° 0 mm 3 mps 753 mmHg 67%
    13:00 -5°C° 0 mm 3 mps 753 mmHg 65%
    14:00 -5°C° 0 mm 3 mps 753 mmHg 67%
    15:00 -6°C° 0 mm 3 mps 754 mmHg 69%
    16:00 -5°C° 0 mm 2 mps 754 mmHg 71%
    17:00 -5°C° 0 mm 2 mps 754 mmHg 72%
    18:00 -6°C° 0 mm 2 mps 754 mmHg 74%
    19:00 -6°C° 0 mm 2 mps 755 mmHg 76%
    20:00 -6°C° 0 mm 2 mps 755 mmHg 76%
    21:00 -6°C° 0 mm 2 mps 755 mmHg 77%
    22:00 -7°C° 0 mm 2 mps 755 mmHg 78%
    23:00 -7°C° 0 mm 2 mps 755 mmHg 79%

    25 January, Friday

    Time Temperature Precipitation Wind Pressure Humidity
    00:00 -7°C° 0 mm 2 mps 755 mmHg 80%
    01:00 -6°C° 0 mm 1 mps 755 mmHg 81%
    02:00 -7°C° 0 mm 2 mps 755 mmHg 82%
    03:00 -7°C° 0 mm 2 mps 755 mmHg 82%
    04:00 -7°C° 0 mm 2 mps 754 mmHg 83%
    05:00 -8°C° 0 mm 2 mps 755 mmHg 84%
    06:00 -8°C° 0 mm 2 mps 755 mmHg 85%
    07:00 -7°C° 0 mm 1 mps 755 mmHg 86%
    08:00 -6°C° 0 mm 1 mps 755 mmHg 83%
    09:00 -6°C° 0 mm 1 mps 755 mmHg 80%
    10:00 -4°C° 0 mm 1 mps 755 mmHg 77%
    11:00 -4°C° 0 mm 1 mps 755 mmHg 74%
    12:00 -4°C° 0 mm 0 mps 755 mmHg 71%
    13:00 -3°C° 0 mm 0 mps 755 mmHg 68%
    14:00 -4°C° 0 mm 0 mps 755 mmHg 69%
    15:00 -4°C° 0 mm 0 mps 755 mmHg 71%
    16:00 -4°C° 0 mm 0 mps 755 mmHg 73%
    17:00 -4°C° 0 mm 0 mps 755 mmHg 74%
    18:00 -5°C° 0 mm 0 mps 755 mmHg 76%
    19:00 -5°C° 0 mm 0 mps 755 mmHg 78%
    20:00 -5°C° 0 mm 0 mps 755 mmHg 79%
    21:00 -4°C° 0 mm 1 mps 754 mmHg 79%
    22:00 -6°C° 0 mm 1 mps 754 mmHg 80%
    23:00 -6°C° 0 mm 1 mps 754 mmHg 81%

    26 January, Saturday

    Time Temperature Precipitation Wind Pressure Humidity
    00:00 -6°C° 0 mm 1 mps 753 mmHg 82%
    01:00 -7°C° 0 mm 2 mps 753 mmHg 83%
    02:00 -7°C° 0 mm 2 mps 753 mmHg 83%
    03:00 -7°C° 0 mm 2 mps 752 mmHg 84%
    04:00 -7°C° 0 mm 2 mps 752 mmHg 84%
    05:00 -8°C° 0 mm 3 mps 751 mmHg 83%
    06:00 -8°C° 0 mm 3 mps 751 mmHg 82%
    07:00 -8°C° 0 mm 3 mps 750 mmHg 81%
    08:00 -8°C° 0 mm 4 mps 750 mmHg 76%
    09:00 -8°C° 0 mm 4 mps 750 mmHg 72%
    10:00 -7°C° 0 mm 5 mps 749 mmHg 68%
    11:00 -6°C° 0 mm 5 mps 749 mmHg 64%
    12:00 -5°C° 0 mm 5 mps 748 mmHg 59%
    13:00 -4°C° 0 mm 5 mps 747 mmHg 55%
    14:00 -5°C° 0 mm 5 mps 747 mmHg 57%
    15:00 -4°C° 0 mm 4 mps 746 mmHg 58%
    16:00 -4°C° 0 mm 4 mps 746 mmHg 59%
    17:00 -4°C° 0 mm 4 mps 745 mmHg 60%
    18:00 -5°C° 0 mm 5 mps 745 mmHg 60%
    19:00 -5°C° 0 mm 5 mps 745 mmHg 60%
    20:00 -5°C° 0 mm 5 mps 745 mmHg 62%
    21:00 -5°C° 0 mm 5 mps 744 mmHg 63%
    22:00 -6°C° 0 mm 5 mps 744 mmHg 65%
    23:00 -6°C° 0 mm 5 mps 744 mmHg 66%

    27 January, Sunday

    Time Temperature Precipitation Wind Pressure Humidity
    00:00 -5°C° 0 mm 4 mps 743 mmHg 67%
    01:00 -5°C° 0 mm 4 mps 743 mmHg 68%
    02:00 -5°C° 0 mm 4 mps 743 mmHg 68%
    03:00 -5°C° 0 mm 4 mps 742 mmHg 69%
    04:00 -5°C° 0 mm 4 mps 742 mmHg 70%
    05:00 -5°C° 0 mm 4 mps 742 mmHg 69%
    06:00 -5°C° 0 mm 4 mps 742 mmHg 69%
    07:00 -5°C° 0 mm 4 mps 742 mmHg 69%
    08:00 -5°C° 0 mm 4 mps 742 mmHg 66%
    09:00 -5°C° 0 mm 5 mps 742 mmHg 62%
    10:00 -4°C° 0 mm 5 mps 742 mmHg 59%
    11:00 -4°C° 0 mm 5 mps 742 mmHg 56%
    12:00 -2°C° 0 mm 4 mps 742 mmHg 54%
    13:00 -1°C° 0 mm 4 mps 742 mmHg 51%
    14:00 -1°C° 0 mm 4 mps 742 mmHg 53%
    15:00 -1°C° 0 mm 3 mps 742 mmHg 56%
    16:00 -1°C° 0 mm 3 mps 742 mmHg 58%
    17:00 -2°C° 0 mm 3 mps 742 mmHg 60%
    18:00 -2°C° 0 mm 3 mps 742 mmHg 61%
    19:00 -2°C° 0 mm 3 mps 743 mmHg 63%
    20:00 -2°C° 0 mm 3 mps 743 mmHg 65%
    21:00 -4°C° 0 mm 3 mps 743 mmHg 66%
    22:00 -4°C° 0 mm 3 mps 744 mmHg 68%
    23:00 -3°C° 0 mm 2 mps 744 mmHg 70%
    Show more